| time (UTC) | temp F | wind direction | speed MPH | gust MPH | rain 1hr in | rain 24hr in | rain mn in | humidity % | barometer mb |
| 20260506043904 | 69 | 348 | 6.0 | 12.0 | 0.00 | 0.00 | 0.00 | 56 | 1006.6 |
| 20260506043404 | 69 | 350 | 7.0 | 13.0 | 0.00 | 0.00 | 0.00 | 56 | 1006.6 |
| 20260506042904 | 70 | 339 | 7.0 | 13.0 | 0.00 | 0.00 | 0.00 | 56 | 1006.5 |
| 20260506042404 | 70 | 337 | 8.0 | 15.0 | 0.00 | 0.00 | 0.00 | 55 | 1006.4 |
| 20260506041904 | 70 | 343 | 8.0 | 14.0 | 0.00 | 0.00 | 0.00 | 55 | 1006.3 |
| 20260506040904 | 71 | 322 | 6.0 | 13.0 | 0.00 | 0.00 | 0.00 | 55 | 1006.3 |
| 20260506040404 | 71 | 315 | 10.0 | 15.0 | 0.00 | 0.00 | 0.00 | 55 | 1006.3 |
| 20260506035404 | 71 | 329 | 5.0 | 12.0 | 0.00 | 0.00 | 0.00 | 55 | 1006.2 |
| 20260506034904 | 71 | 356 | 6.0 | 15.0 | 0.00 | 0.00 | 0.00 | 54 | 1006.0 |
| 20260506034404 | 72 | 347 | 9.0 | 13.0 | 0.00 | 0.00 | 0.00 | 55 | 1006.0 |
| 20260506033904 | 72 | 344 | 6.0 | 10.0 | 0.00 | 0.00 | 0.00 | 55 | 1005.7 |
| 20260506033404 | 72 | 334 | 5.0 | 10.0 | 0.00 | 0.00 | 0.00 | 54 | 1005.9 |
| 20260506032904 | 73 | 330 | 7.0 | 14.0 | 0.00 | 0.00 | 0.00 | 54 | 1005.9 |
| 20260506032404 | 73 | 310 | 6.0 | 18.0 | 0.00 | 0.00 | 0.00 | 54 | 1005.9 |
| 20260506031904 | 74 | 329 | 9.0 | 17.0 | 0.00 | 0.00 | 0.00 | 54 | 1005.7 |
| 20260506031404 | 74 | 324 | 7.0 | 16.0 | 0.00 | 0.00 | 0.00 | 54 | 1005.6 |
| 20260506030904 | 75 | 320 | 9.0 | 17.0 | 0.00 | 0.00 | 0.00 | 54 | 1005.5 |
| 20260506030404 | 75 | 313 | 5.0 | 13.0 | 0.00 | 0.00 | 0.00 | 53 | 1005.3 |
| 20260506025904 | 75 | 322 | 7.0 | 12.0 | 0.00 | 0.00 | 0.00 | 53 | 1005.0 |
| 20260506025404 | 75 | 322 | 6.0 | 13.0 | 0.00 | 0.00 | 0.00 | 53 | 1005.0 |
| 20260506024904 | 75 | 292 | 6.0 | 10.0 | 0.00 | 0.00 | 0.00 | 53 | 1005.0 |
| 20260506024405 | 75 | 297 | 4.0 | 8.0 | 0.00 | 0.00 | 0.00 | 53 | 1004.5 |
| 20260506023904 | 75 | 329 | 5.0 | 8.0 | 0.00 | 0.00 | 0.00 | 52 | 1004.3 |
| 20260506022904 | 76 | 336 | 5.0 | 10.0 | 0.00 | 0.00 | 0.00 | 52 | 1004.1 |
| 20260506022403 | 76 | 289 | 5.0 | 12.0 | 0.00 | 0.00 | 0.00 | 51 | 1004.1 |
| 20260506021904 | 76 | 338 | 7.0 | 13.0 | 0.00 | 0.00 | 0.00 | 51 | 1003.9 |
| 20260506021404 | 77 | 322 | 6.0 | 12.0 | 0.00 | 0.00 | 0.00 | 50 | 1004.0 |
| 20260506020904 | 78 | 312 | 8.0 | 14.0 | 0.00 | 0.00 | 0.00 | 50 | 1003.9 |
| 20260506020404 | 79 | 311 | 5.0 | 12.0 | 0.00 | 0.00 | 0.00 | 49 | 1003.5 |
| 20260506015907 | 80 | 298 | 6.0 | 9.0 | 0.00 | 0.00 | 0.00 | 50 | 1003.9 |
| 20260506015404 | 81 | 276 | 5.0 | 9.0 | 0.00 | 0.00 | 0.00 | 55 | 1003.7 |
| 20260506014404 | 81 | 223 | 1.0 | 3.0 | 0.00 | 0.00 | 0.00 | 55 | 1003.5 |
| 20260506013904 | 81 | 223 | 2.0 | 3.0 | 0.00 | 0.00 | 0.00 | 55 | 1003.6 |
| 20260506013405 | 81 | 224 | 2.0 | 3.0 | 0.00 | 0.00 | 0.00 | 55 | 1003.6 |
| 20260506012405 | 81 | 195 | 2.0 | 5.0 | 0.00 | 0.00 | 0.00 | 54 | 1003.5 |
| 20260506011904 | 81 | 190 | 2.0 | 5.0 | 0.00 | 0.00 | 0.00 | 54 | 1003.2 |
| 20260506011404 | 81 | 161 | 4.0 | 6.0 | 0.00 | 0.00 | 0.00 | 54 | 1002.8 |
| 20260506010403 | 81 | 168 | 7.0 | 12.0 | 0.00 | 0.00 | 0.00 | 54 | 1003.0 |
| 20260506005904 | 81 | 175 | 6.0 | 12.0 | 0.00 | 0.00 | 0.00 | 54 | 1003.1 |
| 20260506005404 | 81 | 172 | 6.0 | 10.0 | 0.00 | 0.00 | 0.00 | 54 | 1003.3 |
| 20260506004904 | 81 | 170 | 6.0 | 16.0 | 0.00 | 0.00 | 0.00 | 54 | 1003.1 |
| 20260506004404 | 82 | 178 | 5.0 | 10.0 | 0.00 | 0.00 | 0.00 | 54 | 1003.2 |
| 20260506003904 | 82 | 158 | 6.0 | 12.0 | 0.00 | 0.00 | 0.00 | 53 | 1003.0 |
| 20260506003404 | 82 | 158 | 6.0 | 15.0 | 0.00 | 0.00 | 0.00 | 53 | 1002.7 |
| 20260506002904 | 82 | 144 | 6.0 | 14.0 | 0.00 | 0.00 | 0.00 | 53 | 1002.5 |
| 20260506001904 | 82 | 156 | 7.0 | 15.0 | 0.00 | 0.00 | 0.00 | 53 | 1002.7 |
| 20260506001404 | 83 | 171 | 10.0 | 16.0 | 0.00 | 0.00 | 0.00 | 52 | 1002.6 |
| 20260506000904 | 83 | 145 | 9.0 | 14.0 | 0.00 | 0.00 | 0.00 | 52 | 1002.1 |
| 20260506000405 | 83 | 159 | 9.0 | 15.0 | 0.00 | 0.00 | 0.00 | 51 | 1002.4 |
| 20260505235904 | 84 | 139 | 9.0 | 15.0 | 0.00 | 0.00 | 0.00 | 51 | 1002.1 |
| 20260505235404 | 84 | 142 | 7.0 | 14.0 | 0.00 | 0.00 | 0.00 | 51 | 1002.0 |
| 20260505234904 | 84 | 148 | 9.0 | 14.0 | 0.00 | 0.00 | 0.00 | 51 | 1002.1 |
| 20260505234404 | 85 | 147 | 7.0 | 15.0 | 0.00 | 0.00 | 0.00 | 50 | 1002.3 |
| 20260505233904 | 85 | 141 | 9.0 | 15.0 | 0.00 | 0.00 | 0.00 | 50 | 1002.4 |
| 20260505233405 | 85 | 141 | 9.0 | 13.0 | 0.00 | 0.00 | 0.00 | 50 | 1002.1 |
| 20260505232404 | 86 | 159 | 9.0 | 13.0 | 0.00 | 0.00 | 0.00 | 50 | 1002.1 |
| 20260505231904 | 86 | 155 | 10.0 | 15.0 | 0.00 | 0.00 | 0.00 | 49 | 1002.3 |
| 20260505230904 | 87 | 159 | 9.0 | 13.0 | 0.00 | 0.00 | 0.00 | 49 | 1002.0 |
| 20260505230404 | 87 | 143 | 9.0 | 17.0 | 0.00 | 0.00 | 0.00 | 49 | 1001.9 |
| 20260505225404 | 87 | 150 | 11.0 | 17.0 | 0.00 | 0.00 | 0.00 | 49 | 1001.9 |
| 20260505224905 | 87 | 145 | 10.0 | 16.0 | 0.00 | 0.00 | 0.00 | 49 | 1001.8 |
| 20260505224404 | 87 | 145 | 9.0 | 14.0 | 0.00 | 0.00 | 0.00 | 49 | 1001.7 |
| 20260505223904 | 87 | 154 | 9.0 | 15.0 | 0.00 | 0.00 | 0.00 | 48 | 1001.6 |
| 20260505223404 | 87 | 158 | 8.0 | 16.0 | 0.00 | 0.00 | 0.00 | 48 | 1001.7 |
| 20260505222904 | 87 | 151 | 12.0 | 20.0 | 0.00 | 0.00 | 0.00 | 48 | 1001.7 |
| 20260505220904 | 87 | 116 | 9.0 | 16.0 | 0.00 | 0.00 | 0.00 | 48 | 1001.7 |
| 20260505220404 | 87 | 144 | 9.0 | 17.0 | 0.00 | 0.00 | 0.00 | 48 | 1001.8 |
| 20260505215904 | 87 | 160 | 8.0 | 17.0 | 0.00 | 0.00 | 0.00 | 48 | 1001.8 |
| 20260505215404 | 87 | 163 | 9.0 | 17.0 | 0.00 | 0.00 | 0.00 | 48 | 1001.8 |
| 20260505214908 | 87 | 160 | 10.0 | 17.0 | 0.00 | 0.00 | 0.00 | 49 | 1001.8 |
| 20260505214405 | 87 | 147 | 10.0 | 17.0 | 0.00 | 0.00 | 0.00 | 48 | 1001.8 |
| 20260505213904 | 87 | 170 | 11.0 | 18.0 | 0.00 | 0.00 | 0.00 | 49 | 1001.8 |
| 20260505213404 | 87 | 170 | 10.0 | 17.0 | 0.00 | 0.00 | 0.00 | 49 | 1002.0 |
| 20260505212404 | 87 | 146 | 10.0 | 17.0 | 0.00 | 0.00 | 0.00 | 48 | 1002.0 |
| 20260505211905 | 87 | 168 | 9.0 | 20.0 | 0.00 | 0.00 | 0.00 | 49 | 1002.1 |
| 20260505211404 | 87 | 166 | 9.0 | 16.0 | 0.00 | 0.00 | 0.00 | 49 | 1002.0 |
| 20260505210904 | 87 | 140 | 11.0 | 16.0 | 0.00 | 0.00 | 0.00 | 48 | 1002.1 |
| 20260505210404 | 87 | 183 | 10.0 | 15.0 | 0.00 | 0.00 | 0.00 | 48 | 1002.1 |
| 20260505205905 | 87 | 179 | 10.0 | 18.0 | 0.00 | 0.00 | 0.00 | 49 | 1002.3 |
| 20260505204904 | 87 | 176 | 7.0 | 16.0 | 0.00 | 0.00 | 0.00 | 49 | 1002.4 |
| 20260505204404 | 87 | 159 | 9.0 | 16.0 | 0.00 | 0.00 | 0.00 | 48 | 1002.4 |
| 20260505203904 | 87 | 190 | 10.0 | 18.0 | 0.00 | 0.00 | 0.00 | 49 | 1002.5 |
| 20260505203405 | 87 | 146 | 14.0 | 21.0 | 0.00 | 0.00 | 0.00 | 49 | 1002.6 |
| 20260505202904 | 86 | 161 | 7.0 | 17.0 | 0.00 | 0.00 | 0.00 | 49 | 1002.6 |
| 20260505202404 | 86 | 171 | 12.0 | 18.0 | 0.00 | 0.00 | 0.00 | 49 | 1002.7 |
| 20260505201907 | 86 | 187 | 10.0 | 17.0 | 0.00 | 0.00 | 0.00 | 50 | 1002.7 |
| 20260505201404 | 85 | 145 | 12.0 | 20.0 | 0.00 | 0.00 | 0.00 | 49 | 1002.6 |
| 20260505200904 | 85 | 164 | 10.0 | 16.0 | 0.00 | 0.00 | 0.00 | 50 | 1002.8 |
| 20260505195404 | 85 | 169 | 13.0 | 20.0 | 0.00 | 0.00 | 0.00 | 51 | 1002.8 |
| 20260505194904 | 85 | 170 | 10.0 | 18.0 | 0.00 | 0.00 | 0.00 | 50 | 1002.7 |
| 20260505194405 | 84 | 169 | 11.0 | 21.0 | 0.00 | 0.00 | 0.00 | 50 | 1002.9 |
| 20260505193903 | 84 | 169 | 8.0 | 20.0 | 0.00 | 0.00 | 0.00 | 51 | 1002.8 |
| 20260505193404 | 84 | 164 | 13.0 | 22.0 | 0.00 | 0.00 | 0.00 | 50 | 1002.9 |
| 20260505192904 | 84 | 180 | 10.0 | 20.0 | 0.00 | 0.00 | 0.00 | 50 | 1002.9 |
| 20260505191907 | 83 | 149 | 13.0 | 18.0 | 0.00 | 0.00 | 0.00 | 52 | 1002.9 |
| 20260505191404 | 83 | 151 | 10.0 | 20.0 | 0.00 | 0.00 | 0.00 | 51 | 1002.8 |
| 20260505190404 | 83 | 168 | 11.0 | 20.0 | 0.00 | 0.00 | 0.00 | 50 | 1003.2 |
| 20260505185904 | 83 | 181 | 12.0 | 20.0 | 0.00 | 0.00 | 0.00 | 51 | 1003.1 |
| 20260505185404 | 82 | 166 | 12.0 | 17.0 | 0.00 | 0.00 | 0.00 | 51 | 1003.2 |
| 20260505184904 | 82 | 157 | 12.0 | 18.0 | 0.00 | 0.00 | 0.00 | 52 | 1003.2 |
| 20260505184404 | 82 | 186 | 10.0 | 21.0 | 0.00 | 0.00 | 0.00 | 51 | 1003.3 |
| 20260505183904 | 82 | 150 | 12.0 | 20.0 | 0.00 | 0.00 | 0.00 | 51 | 1003.2 |
| 20260505182404 | 82 | 173 | 12.0 | 21.0 | 0.00 | 0.00 | 0.00 | 51 | 1003.4 |
| 20260505181904 | 82 | 157 | 10.0 | 18.0 | 0.00 | 0.00 | 0.00 | 52 | 1003.5 |
| 20260505181404 | 82 | 169 | 13.0 | 18.0 | 0.00 | 0.00 | 0.00 | 52 | 1003.4 |
| 20260505180904 | 82 | 182 | 11.0 | 20.0 | 0.00 | 0.00 | 0.00 | 52 | 1003.3 |
| 20260505180404 | 82 | 193 | 12.0 | 21.0 | 0.00 | 0.00 | 0.00 | 51 | 1003.4 |
| 20260505175904 | 82 | 186 | 12.0 | 21.0 | 0.00 | 0.00 | 0.00 | 52 | 1003.5 |
| 20260505174905 | 82 | 176 | 14.0 | 20.0 | 0.00 | 0.00 | 0.00 | 52 | 1003.5 |
| 20260505173404 | 81 | 166 | 14.0 | 21.0 | 0.00 | 0.00 | 0.00 | 52 | 1003.4 |
| 20260505172904 | 81 | 174 | 13.0 | 22.0 | 0.00 | 0.00 | 0.00 | 52 | 1003.5 |
| 20260505172404 | 81 | 169 | 14.0 | 20.0 | 0.00 | 0.00 | 0.00 | 52 | 1003.4 |
| 20260505171904 | 81 | 178 | 12.0 | 22.0 | 0.00 | 0.00 | 0.00 | 51 | 1003.5 |
| 20260505171404 | 81 | 163 | 15.0 | 25.0 | 0.00 | 0.00 | 0.00 | 52 | 1003.5 |
| 20260505170404 | 80 | 187 | 11.0 | 23.0 | 0.00 | 0.00 | 0.00 | 53 | 1003.6 |
| 20260505165903 | 80 | 159 | 13.0 | 22.0 | 0.00 | 0.00 | 0.00 | 52 | 1003.5 |
| 20260505165405 | 80 | 178 | 12.0 | 18.0 | 0.00 | 0.00 | 0.00 | 53 | 1003.5 |
| 20260505164904 | 80 | 178 | 11.0 | 20.0 | 0.00 | 0.00 | 0.00 | 53 | 1003.7 |
| 20260505164404 | 80 | 179 | 14.0 | 26.0 | 0.00 | 0.00 | 0.00 | 52 | 1003.7 |
| 20260505162904 | 79 | 186 | 14.0 | 21.0 | 0.00 | 0.00 | 0.00 | 53 | 1003.5 |
| 20260505162404 | 79 | 179 | 15.0 | 22.0 | 0.00 | 0.00 | 0.00 | 53 | 1003.4 |
| 20260505161403 | 78 | 165 | 14.0 | 23.0 | 0.00 | 0.00 | 0.00 | 54 | 1003.4 |
| 20260505160904 | 78 | 179 | 10.0 | 25.0 | 0.00 | 0.00 | 0.00 | 55 | 1003.3 |
| 20260505160404 | 77 | 175 | 13.0 | 21.0 | 0.00 | 0.00 | 0.00 | 55 | 1003.4 |
| 20260505152904 | 76 | 167 | 14.0 | 22.0 | 0.00 | 0.00 | 0.00 | 57 | 1003.6 |
| 20260505152403 | 76 | 178 | 12.0 | 25.0 | 0.00 | 0.00 | 0.00 | 57 | 1003.6 |
| 20260505151904 | 76 | 184 | 10.0 | 23.0 | 0.00 | 0.00 | 0.00 | 57 | 1003.6 |
| 20260505150904 | 75 | 174 | 10.0 | 17.0 | 0.00 | 0.00 | 0.00 | 57 | 1003.5 |
| 20260505150403 | 75 | 183 | 14.0 | 21.0 | 0.00 | 0.00 | 0.00 | 57 | 1003.4 |
| 20260505140403 | 73 | 164 | 10.0 | 20.0 | 0.00 | 0.00 | 0.00 | 60 | 1003.4 |
| 20260505124904 | 72 | 156 | 10.0 | 18.0 | 0.00 | 0.00 | 0.00 | 61 | 1003.2 |
| 20260505124404 | 72 | 155 | 9.0 | 20.0 | 0.00 | 0.00 | 0.00 | 61 | 1003.1 |
| 20260505123905 | 72 | 143 | 9.0 | 16.0 | 0.00 | 0.00 | 0.00 | 61 | 1003.0 |
| 20260505123404 | 72 | 163 | 10.0 | 16.0 | 0.00 | 0.00 | 0.00 | 61 | 1002.9 |
| 20260505121904 | 71 | 164 | 10.0 | 20.0 | 0.00 | 0.00 | 0.00 | 61 | 1002.8 |
| 20260505121404 | 71 | 165 | 11.0 | 20.0 | 0.00 | 0.00 | 0.00 | 61 | 1002.8 |
| 20260505120904 | 71 | 162 | 9.0 | 20.0 | 0.00 | 0.00 | 0.00 | 61 | 1002.8 |
| 20260505120403 | 71 | 169 | 10.0 | 16.0 | 0.00 | 0.00 | 0.00 | 61 | 1002.6 |
| 20260505115904 | 71 | 163 | 10.0 | 17.0 | 0.00 | 0.00 | 0.00 | 61 | 1002.5 |
| 20260505115404 | 71 | 157 | 11.0 | 21.0 | 0.00 | 0.00 | 0.00 | 61 | 1002.6 |
| 20260505114904 | 71 | 146 | 10.0 | 20.0 | 0.00 | 0.00 | 0.00 | 61 | 1002.5 |
| 20260505114405 | 71 | 153 | 11.0 | 16.0 | 0.00 | 0.00 | 0.00 | 61 | 1002.6 |
| 20260505113904 | 71 | 178 | 9.0 | 22.0 | 0.00 | 0.00 | 0.00 | 61 | 1002.6 |
| 20260505113404 | 71 | 175 | 12.0 | 20.0 | 0.00 | 0.00 | 0.00 | 61 | 1002.5 |
| 20260505112904 | 71 | 180 | 12.0 | 18.0 | 0.00 | 0.00 | 0.00 | 61 | 1002.5 |
| 20260505111903 | 71 | 170 | 11.0 | 18.0 | 0.00 | 0.00 | 0.00 | 61 | 1002.6 |
| 20260505111403 | 71 | 169 | 12.0 | 17.0 | 0.00 | 0.00 | 0.00 | 61 | 1002.6 |
| 20260505110904 | 71 | 173 | 10.0 | 17.0 | 0.00 | 0.00 | 0.00 | 61 | 1002.6 |
| 20260505110404 | 71 | 158 | 12.0 | 20.0 | 0.00 | 0.00 | 0.00 | 61 | 1002.6 |
| 20260505101904 | 71 | 155 | 9.0 | 17.0 | 0.00 | 0.00 | 0.00 | 61 | 1002.6 |
| 20260505100403 | 71 | 163 | 10.0 | 20.0 | 0.00 | 0.00 | 0.00 | 61 | 1002.8 |
| 20260505095903 | 71 | 156 | 10.0 | 23.0 | 0.00 | 0.00 | 0.00 | 61 | 1002.8 |
| 20260505095403 | 71 | 151 | 12.0 | 20.0 | 0.00 | 0.00 | 0.00 | 61 | 1002.9 |
| 20260505094904 | 71 | 159 | 11.0 | 16.0 | 0.00 | 0.00 | 0.00 | 61 | 1003.0 |
| 20260505094405 | 71 | 157 | 9.0 | 17.0 | 0.00 | 0.00 | 0.00 | 61 | 1003.0 |
| 20260505093403 | 71 | 168 | 10.0 | 24.0 | 0.00 | 0.00 | 0.00 | 61 | 1003.0 |
| 20260505092904 | 71 | 164 | 10.0 | 20.0 | 0.00 | 0.00 | 0.00 | 61 | 1002.9 |
| 20260505092404 | 71 | 158 | 9.0 | 20.0 | 0.00 | 0.00 | 0.00 | 61 | 1003.0 |
| 20260505091908 | 71 | 159 | 12.0 | 20.0 | 0.00 | 0.00 | 0.00 | 61 | 1002.9 |
| 20260505091404 | 71 | 166 | 11.0 | 23.0 | 0.00 | 0.00 | 0.00 | 61 | 1003.0 |
| 20260505090904 | 71 | 165 | 11.0 | 20.0 | 0.00 | 0.00 | 0.00 | 61 | 1002.9 |
| 20260505090404 | 71 | 162 | 14.0 | 22.0 | 0.00 | 0.00 | 0.00 | 61 | 1003.0 |
| 20260505085904 | 71 | 172 | 13.0 | 20.0 | 0.00 | 0.00 | 0.00 | 61 | 1002.9 |
| 20260505085403 | 71 | 177 | 12.0 | 24.0 | 0.00 | 0.00 | 0.00 | 61 | 1002.9 |
| 20260505084404 | 71 | 146 | 12.0 | 18.0 | 0.00 | 0.00 | 0.00 | 61 | 1002.8 |
| 20260505083904 | 71 | 147 | 12.0 | 20.0 | 0.00 | 0.00 | 0.00 | 61 | 1003.0 |
| 20260505083404 | 71 | 164 | 12.0 | 20.0 | 0.00 | 0.00 | 0.00 | 61 | 1003.0 |
| 20260505082904 | 71 | 155 | 12.0 | 22.0 | 0.00 | 0.00 | 0.00 | 61 | 1003.1 |
| 20260505082403 | 71 | 153 | 10.0 | 21.0 | 0.00 | 0.00 | 0.00 | 61 | 1003.0 |
| 20260505081404 | 71 | 159 | 10.0 | 16.0 | 0.00 | 0.00 | 0.00 | 61 | 1003.1 |
| 20260505080904 | 71 | 156 | 12.0 | 18.0 | 0.00 | 0.00 | 0.00 | 60 | 1003.1 |
| 20260505080404 | 71 | 170 | 13.0 | 20.0 | 0.00 | 0.00 | 0.00 | 60 | 1003.2 |
| 20260505075404 | 71 | 156 | 10.0 | 17.0 | 0.00 | 0.00 | 0.00 | 60 | 1003.4 |
| 20260505074904 | 71 | 157 | 11.0 | 16.0 | 0.00 | 0.00 | 0.00 | 60 | 1003.5 |
| 20260505074403 | 71 | 166 | 10.0 | 18.0 | 0.00 | 0.00 | 0.00 | 60 | 1003.5 |
| 20260505073904 | 71 | 163 | 12.0 | 24.0 | 0.00 | 0.00 | 0.00 | 60 | 1003.6 |
| 20260505072904 | 71 | 150 | 11.0 | 21.0 | 0.00 | 0.00 | 0.00 | 60 | 1003.8 |
| 20260505072403 | 71 | 159 | 10.0 | 18.0 | 0.00 | 0.00 | 0.00 | 60 | 1003.9 |
| 20260505071904 | 71 | 152 | 11.0 | 18.0 | 0.00 | 0.00 | 0.00 | 60 | 1003.9 |
| 20260505071404 | 71 | 154 | 10.0 | 21.0 | 0.00 | 0.00 | 0.00 | 60 | 1003.9 |
| 20260505070404 | 71 | 159 | 12.0 | 20.0 | 0.00 | 0.00 | 0.00 | 60 | 1004.0 |
| 20260505065904 | 71 | 163 | 11.0 | 20.0 | 0.00 | 0.00 | 0.00 | 60 | 1004.1 |
| 20260505065403 | 71 | 151 | 11.0 | 20.0 | 0.00 | 0.00 | 0.00 | 60 | 1004.1 |
| 20260505064904 | 71 | 174 | 10.0 | 18.0 | 0.00 | 0.00 | 0.00 | 60 | 1004.2 |
| 20260505064404 | 71 | 157 | 10.0 | 21.0 | 0.00 | 0.00 | 0.00 | 60 | 1004.2 |
| 20260505063904 | 71 | 161 | 11.0 | 18.0 | 0.00 | 0.00 | 0.00 | 59 | 1004.2 |
| 20260505063404 | 71 | 170 | 10.0 | 24.0 | 0.00 | 0.00 | 0.00 | 59 | 1004.2 |
| 20260505062904 | 71 | 152 | 10.0 | 20.0 | 0.00 | 0.00 | 0.00 | 59 | 1004.2 |
| 20260505062403 | 71 | 156 | 11.0 | 18.0 | 0.00 | 0.00 | 0.00 | 59 | 1004.3 |
| 20260505061904 | 71 | 153 | 10.0 | 18.0 | 0.00 | 0.00 | 0.00 | 59 | 1004.4 |
| 20260505061404 | 72 | 148 | 13.0 | 20.0 | 0.00 | 0.00 | 0.00 | 59 | 1004.4 |
| 20260505060904 | 72 | 156 | 10.0 | 17.0 | 0.00 | 0.00 | 0.00 | 59 | 1004.4 |
| 20260505060404 | 72 | 164 | 11.0 | 18.0 | 0.00 | 0.00 | 0.00 | 58 | 1004.5 |
| 20260505055904 | 72 | 161 | 10.0 | 18.0 | 0.00 | 0.00 | 0.00 | 58 | 1004.4 |
| 20260505055403 | 72 | 148 | 12.0 | 17.0 | 0.00 | 0.00 | 0.00 | 58 | 1004.4 |
| 20260505054903 | 72 | 160 | 9.0 | 20.0 | 0.00 | 0.00 | 0.00 | 58 | 1004.5 |
| 20260505053903 | 72 | 152 | 13.0 | 21.0 | 0.00 | 0.00 | 0.00 | 57 | 1004.5 |
| 20260505052904 | 72 | 147 | 10.0 | 17.0 | 0.00 | 0.00 | 0.00 | 57 | 1004.6 |
| 20260505052404 | 72 | 164 | 10.0 | 20.0 | 0.00 | 0.00 | 0.00 | 57 | 1004.7 |
| 20260505051904 | 72 | 160 | 9.0 | 18.0 | 0.00 | 0.00 | 0.00 | 57 | 1004.9 |
| 20260505051404 | 72 | 160 | 9.0 | 18.0 | 0.00 | 0.00 | 0.00 | 57 | 1004.8 |
| 20260505050403 | 73 | 152 | 10.0 | 16.0 | 0.00 | 0.00 | 0.00 | 56 | 1004.8 |